Time,TemperatureF,DewpointF,PressureIn,WindDirection,WindDirectionDegrees,WindSpeedMPH,WindSpeedGustMPH,Humidity,HourlyPrecipIn,Conditions,Clouds,dailyrainin,SoftwareType,DateUTC
2013-04-07 00:00:00,42.6,32.4,30.30,SW,220,2.0,6.0,67,0.00,,CLR,0.00,VWS V14.01,2013-04-07 04:00:00,
2013-04-07 00:01:00,42.5,32.3,30.30,SW,220,2.0,0.0,67,0.00,,CLR,0.00,VWS V14.01,2013-04-07 04:01:00,
2013-04-07 00:02:00,42.5,32.3,30.30,SW,220,2.0,0.0,67,0.00,,CLR,0.00,VWS V14.01,2013-04-07 04:02:00,
2013-04-07 00:07:00,42.2,32.4,30.30,SW,220,2.0,2.0,68,0.00,,CLR,0.00,VWS V14.01,2013-04-07 04:07:00,
2013-04-07 00:12:00,42.1,32.3,30.30,SW,220,2.0,2.0,68,0.00,,CLR,0.00,VWS V14.01,2013-04-07 04:12:00,
2013-04-07 00:17:00,42.0,32.6,30.30,SW,219,2.0,6.0,69,0.00,,CLR,0.00,VWS V14.01,2013-04-07 04:17:00,
2013-04-07 00:22:00,42.0,34.0,30.30,SW,220,5.0,8.0,73,0.00,,CLR,0.00,VWS V14.01,2013-04-07 04:22:00,
2013-04-07 00:27:00,42.0,32.6,30.30,SW,221,2.0,8.0,69,0.00,,CLR,0.00,VWS V14.01,2013-04-07 04:27:00,
2013-04-07 00:32:00,42.0,32.6,30.30,SW,221,2.0,2.0,69,0.00,,CLR,0.00,VWS V14.01,2013-04-07 04:32:00,
2013-04-07 00:37:00,41.9,32.5,30.30,SW,221,5.0,8.0,69,0.00,,CLR,0.00,VWS V14.01,2013-04-07 04:37:00,
2013-04-07 00:42:00,41.9,32.8,30.30,SW,221,2.0,4.0,70,0.00,,CLR,0.00,VWS V14.01,2013-04-07 04:42:00,
2013-04-07 00:47:00,41.8,32.8,30.30,SW,221,2.0,6.0,70,0.00,,CLR,0.00,VWS V14.01,2013-04-07 04:47:00,
2013-04-07 00:52:00,41.6,32.6,30.30,WSW,241,5.0,10.0,70,0.00,,CLR,0.00,VWS V14.01,2013-04-07 04:52:00,
2013-04-07 00:57:00,41.6,32.6,30.30,WSW,241,2.0,10.0,70,0.00,,CLR,0.00,VWS V14.01,2013-04-07 04:57:00,
2013-04-07 01:02:00,41.5,32.8,30.30,WSW,241,2.0,2.0,71,0.00,,CLR,0.00,VWS V14.01,2013-04-07 05:02:00,
2013-04-07 01:08:00,41.4,32.7,30.30,WSW,241,2.0,2.0,71,0.00,,CLR,0.00,VWS V14.01,2013-04-07 05:08:00,
2013-04-07 01:13:00,41.2,32.5,30.30,WSW,240,2.0,4.0,71,0.00,,CLR,0.00,VWS V14.01,2013-04-07 05:13:00,
2013-04-07 01:18:00,41.1,32.4,30.30,WSW,240,5.0,5.0,71,0.00,,CLR,0.00,VWS V14.01,2013-04-07 05:18:00,
2013-04-07 01:23:00,41.1,32.4,30.30,WSW,240,2.0,4.0,71,0.00,,CLR,0.00,VWS V14.01,2013-04-07 05:23:00,
2013-04-07 01:28:00,41.1,32.4,30.30,WSW,240,2.0,6.0,71,0.00,,CLR,0.00,VWS V14.01,2013-04-07 05:28:00,
2013-04-07 01:33:00,41.0,32.3,30.30,WSW,240,2.0,6.0,71,0.00,,CLR,0.00,VWS V14.01,2013-04-07 05:33:00,
2013-04-07 01:38:00,41.0,32.0,30.30,WSW,238,2.0,6.0,70,0.00,,CLR,0.00,VWS V14.01,2013-04-07 05:38:00,
2013-04-07 01:43:00,40.9,31.9,30.30,WSW,238,2.0,0.0,70,0.00,,CLR,0.00,VWS V14.01,2013-04-07 05:43:00,
2013-04-07 01:48:00,40.8,32.1,30.30,WSW,240,2.0,10.0,71,0.00,,CLR,0.00,VWS V14.01,2013-04-07 05:48:00,
2013-04-07 01:53:00,40.7,32.0,30.30,SW,236,2.0,4.0,71,0.00,,CLR,0.00,VWS V14.01,2013-04-07 05:53:00,
2013-04-07 01:59:00,40.7,32.0,30.30,SW,234,2.0,10.0,71,0.00,,CLR,0.00,VWS V14.01,2013-04-07 05:59:00,
2013-04-07 02:04:00,40.7,32.0,30.30,SW,226,2.0,10.0,71,0.00,,CLR,0.00,VWS V14.01,2013-04-07 06:04:00,
2013-04-07 02:09:00,40.7,32.0,30.30,SSW,212,2.0,16.0,71,0.00,,CLR,0.00,VWS V14.01,2013-04-07 06:09:00,
2013-04-07 02:14:00,40.7,32.0,30.30,WSW,238,2.0,10.0,71,0.00,,CLR,0.00,VWS V14.01,2013-04-07 06:14:00,
2013-04-07 02:19:00,40.7,32.0,30.30,SW,231,2.0,10.0,71,0.00,,CLR,0.00,VWS V14.01,2013-04-07 06:19:00,
2013-04-07 02:24:00,40.6,32.0,30.29,SW,223,5.0,10.0,71,0.00,,CLR,0.00,VWS V14.01,2013-04-07 06:24:00,
2013-04-07 02:29:00,40.6,32.3,30.29,SW,218,17.0,17.0,72,0.00,,CLR,0.00,VWS V14.01,2013-04-07 06:29:00,
2013-04-07 02:34:00,40.7,32.4,30.29,WSW,238,11.0,11.0,72,0.00,,CLR,0.00,VWS V14.01,2013-04-07 06:34:00,
2013-04-07 02:40:00,40.7,32.4,30.29,SW,215,2.0,12.0,72,0.00,,CLR,0.00,VWS V14.01,2013-04-07 06:40:00,
2013-04-07 02:45:00,40.6,32.3,30.29,SW,230,2.0,14.0,72,0.00,,CLR,0.00,VWS V14.01,2013-04-07 06:45:00,
2013-04-07 02:50:00,40.6,32.6,30.29,SW,232,8.0,14.0,73,0.00,,CLR,0.00,VWS V14.01,2013-04-07 06:50:00,
2013-04-07 02:55:00,40.5,32.5,30.29,SW,232,5.0,5.0,73,0.00,,CLR,0.00,VWS V14.01,2013-04-07 06:55:00,
2013-04-07 03:00:00,40.4,32.4,30.29,SW,215,11.0,12.0,73,0.00,,CLR,0.00,VWS V14.01,2013-04-07 07:00:00,
2013-04-07 03:05:00,40.4,32.4,30.29,SSW,211,2.0,6.0,73,0.00,,CLR,0.00,VWS V14.01,2013-04-07 07:05:00,
2013-04-07 03:10:00,40.3,32.7,30.29,SW,218,2.0,8.0,74,0.00,,CLR,0.00,VWS V14.01,2013-04-07 07:10:00,
2013-04-07 03:15:00,40.2,32.6,30.29,SW,219,5.0,8.0,74,0.00,,CLR,0.00,VWS V14.01,2013-04-07 07:15:00,
2013-04-07 03:20:00,40.3,32.7,30.28,SW,221,2.0,10.0,74,0.00,,CLR,0.00,VWS V14.01,2013-04-07 07:20:00,
2013-04-07 03:25:00,40.3,32.7,30.29,SW,226,2.0,10.0,74,0.00,,CLR,0.00,VWS V14.01,2013-04-07 07:25:00,
2013-04-07 03:30:00,40.3,32.7,30.28,SW,226,2.0,10.0,74,0.00,,CLR,0.00,VWS V14.01,2013-04-07 07:30:00,
2013-04-07 03:35:00,40.2,32.6,30.28,SW,226,11.0,11.0,74,0.00,,CLR,0.00,VWS V14.01,2013-04-07 07:35:00,
2013-04-07 03:40:00,40.2,32.9,30.28,SW,225,2.0,0.0,75,0.00,,CLR,0.00,VWS V14.01,2013-04-07 07:40:00,
2013-04-07 03:46:00,40.1,32.8,30.28,SW,225,2.0,2.0,75,0.00,,CLR,0.00,VWS V14.01,2013-04-07 07:46:00,
2013-04-07 03:51:00,40.1,32.8,30.28,SW,227,2.0,2.0,75,0.00,,CLR,0.00,VWS V14.01,2013-04-07 07:51:00,
2013-04-07 03:56:00,40.0,32.7,30.28,SW,225,2.0,8.0,75,0.00,,CLR,0.00,VWS V14.01,2013-04-07 07:56:00,
2013-04-07 04:01:00,40.0,32.7,30.28,SW,225,2.0,0.0,75,0.00,,CLR,0.00,VWS V14.01,2013-04-07 08:01:00,
2013-04-07 04:06:00,40.0,32.7,30.28,SW,225,2.0,8.0,75,0.00,,CLR,0.00,VWS V14.01,2013-04-07 08:06:00,
2013-04-07 04:12:00,40.0,33.1,30.28,SW,225,2.0,12.0,76,0.00,,CLR,0.00,VWS V14.01,2013-04-07 08:12:00,
2013-04-07 04:17:00,40.0,33.1,30.28,SW,221,8.0,12.0,76,0.00,,CLR,0.00,VWS V14.01,2013-04-07 08:17:00,
2013-04-07 04:22:00,40.1,33.2,30.28,SW,225,2.0,8.0,76,0.00,,CLR,0.00,VWS V14.01,2013-04-07 08:22:00,
2013-04-07 04:27:00,40.2,33.2,30.28,SW,219,2.0,12.0,76,0.00,,CLR,0.00,VWS V14.01,2013-04-07 08:27:00,
2013-04-07 04:32:00,40.3,33.3,30.28,SW,226,2.0,12.0,76,0.00,,CLR,0.00,VWS V14.01,2013-04-07 08:32:00,
2013-04-07 04:37:00,40.3,33.3,30.28,SW,226,5.0,12.0,76,0.00,,CLR,0.00,VWS V14.01,2013-04-07 08:37:00,
2013-04-07 04:42:00,40.3,33.3,30.28,SW,218,2.0,2.0,76,0.00,,CLR,0.00,VWS V14.01,2013-04-07 08:42:00,
2013-04-07 04:47:00,40.4,33.5,30.28,SW,220,2.0,8.0,76,0.00,,CLR,0.00,VWS V14.01,2013-04-07 08:47:00,
2013-04-07 04:52:00,40.4,33.5,30.28,SW,221,2.0,8.0,76,0.00,,CLR,0.00,VWS V14.01,2013-04-07 08:52:00,
2013-04-07 04:57:00,40.4,33.5,30.28,SW,221,2.0,10.0,76,0.00,,CLR,0.00,VWS V14.01,2013-04-07 08:57:00,
2013-04-07 05:02:00,40.5,33.5,30.28,SW,225,11.0,11.0,76,0.00,,CLR,0.00,VWS V14.01,2013-04-07 09:02:00,
2013-04-07 05:07:00,40.6,33.6,30.28,SW,225,2.0,12.0,76,0.00,,CLR,0.00,VWS V14.01,2013-04-07 09:07:00,
2013-04-07 05:13:00,40.6,34.0,30.28,SW,229,2.0,8.0,77,0.00,,CLR,0.00,VWS V14.01,2013-04-07 09:13:00,
2013-04-07 05:18:00,40.6,34.0,30.28,SW,223,14.0,14.0,77,0.00,,CLR,0.00,VWS V14.01,2013-04-07 09:18:00,
2013-04-07 05:23:00,40.7,34.1,30.28,SW,223,2.0,8.0,77,0.00,,CLR,0.00,VWS V14.01,2013-04-07 09:23:00,
2013-04-07 05:28:00,40.7,34.4,30.28,SW,226,2.0,10.0,78,0.00,,CLR,0.00,VWS V14.01,2013-04-07 09:28:00,
2013-04-07 05:33:00,40.8,34.5,30.28,SW,223,2.0,10.0,78,0.00,,CLR,0.00,VWS V14.01,2013-04-07 09:33:00,
2013-04-07 05:38:00,40.9,34.6,30.28,SW,223,2.0,10.0,78,0.00,,CLR,0.00,VWS V14.01,2013-04-07 09:38:00,
2013-04-07 05:43:00,41.0,34.7,30.28,SW,228,5.0,14.0,78,0.00,,CLR,0.00,VWS V14.01,2013-04-07 09:43:00,
2013-04-07 05:48:00,41.0,34.7,30.28,SW,236,5.0,14.0,78,0.00,,CLR,0.00,VWS V14.01,2013-04-07 09:48:00,
2013-04-07 05:53:00,41.1,34.5,30.28,SW,229,2.0,8.0,77,0.00,,CLR,0.00,VWS V14.01,2013-04-07 09:53:00,
2013-04-07 05:58:00,41.1,34.5,30.28,SW,229,2.0,8.0,77,0.00,,FEW120,0.00,VWS V14.01,2013-04-07 09:58:00,
2013-04-07 06:04:00,41.2,34.5,30.28,SW,227,2.0,8.0,77,0.00,,FEW120,0.00,VWS V14.01,2013-04-07 10:04:00,
2013-04-07 06:10:00,41.4,34.7,30.28,SW,232,11.0,14.0,77,0.00,,FEW120,0.00,VWS V14.01,2013-04-07 10:10:00,
2013-04-07 06:15:00,41.5,34.5,30.28,SW,221,2.0,22.0,76,0.00,,FEW120,0.00,VWS V14.01,2013-04-07 10:15:00,
2013-04-07 06:20:00,41.5,34.5,30.28,SW,225,2.0,22.0,76,0.00,,FEW120,0.00,VWS V14.01,2013-04-07 10:20:00,
2013-04-07 06:25:00,41.6,34.6,30.29,SW,226,2.0,12.0,76,0.00,,FEW120,0.00,VWS V14.01,2013-04-07 10:25:00,
2013-04-07 06:30:00,41.6,34.6,30.29,SW,221,5.0,12.0,76,0.00,,FEW120,0.00,VWS V14.01,2013-04-07 10:30:00,
2013-04-07 06:36:00,41.7,34.4,30.29,SW,229,14.0,18.0,75,0.00,,FEW120,0.00,VWS V14.01,2013-04-07 10:36:00,
2013-04-07 06:41:00,41.7,34.4,30.29,SW,236,2.0,2.0,75,0.00,,FEW120,0.00,VWS V14.01,2013-04-07 10:41:00,
2013-04-07 06:46:00,41.8,34.5,30.29,WSW,246,11.0,12.0,75,0.00,,FEW120,0.00,VWS V14.01,2013-04-07 10:46:00,
2013-04-07 06:51:00,41.9,34.2,30.29,WSW,246,5.0,6.0,74,0.00,,FEW120,0.00,VWS V14.01,2013-04-07 10:51:00,
2013-04-07 06:57:00,42.0,34.0,30.29,WSW,238,5.0,8.0,73,0.00,,FEW120,0.00,VWS V14.01,2013-04-07 10:57:00,
2013-04-07 07:02:00,42.1,34.1,30.29,WSW,250,2.0,6.0,73,0.00,,FEW120,0.00,VWS V14.01,2013-04-07 11:02:00,
2013-04-07 07:07:00,42.2,33.8,30.29,WSW,248,2.0,12.0,72,0.00,,FEW120,0.00,VWS V14.01,2013-04-07 11:07:00,
2013-04-07 07:12:00,42.3,33.9,30.29,SW,232,8.0,8.0,72,0.00,,FEW120,0.00,VWS V14.01,2013-04-07 11:12:00,
2013-04-07 07:17:00,42.4,34.0,30.29,SW,224,2.0,8.0,72,0.00,,FEW120,0.00,VWS V14.01,2013-04-07 11:17:00,
2013-04-07 07:22:00,42.5,33.8,30.29,SW,224,2.0,0.0,71,0.00,,FEW120,0.00,VWS V14.01,2013-04-07 11:22:00,
2013-04-07 07:27:00,42.5,33.8,30.29,SW,223,2.0,2.0,71,0.00,,FEW120,0.00,VWS V14.01,2013-04-07 11:27:00,
2013-04-07 07:32:00,42.6,33.5,30.29,SW,224,2.0,4.0,70,0.00,,FEW120,0.00,VWS V14.01,2013-04-07 11:32:00,
2013-04-07 07:37:00,42.7,33.6,30.29,SW,224,2.0,4.0,70,0.00,,FEW120,0.00,VWS V14.01,2013-04-07 11:37:00,
2013-04-07 07:42:00,42.8,33.7,30.29,SW,223,2.0,0.0,70,0.00,,FEW120,0.00,VWS V14.01,2013-04-07 11:42:00,
2013-04-07 07:48:00,43.0,33.5,30.28,SW,223,2.0,6.0,69,0.00,,FEW120,0.00,VWS V14.01,2013-04-07 11:48:00,
2013-04-07 07:53:00,43.2,33.4,30.28,SW,224,2.0,4.0,68,0.00,,FEW120,0.00,VWS V14.01,2013-04-07 11:53:00,
2013-04-07 07:58:00,43.4,33.2,30.28,SW,223,2.0,6.0,67,0.00,,CLR,0.00,VWS V14.01,2013-04-07 11:58:00,
2013-04-07 08:03:00,43.6,32.6,30.28,SW,221,2.0,10.0,65,0.00,,CLR,0.00,VWS V14.01,2013-04-07 12:03:00,
2013-04-07 08:08:00,43.8,32.8,30.28,SW,221,2.0,10.0,65,0.00,,CLR,0.00,VWS V14.01,2013-04-07 12:08:00,
2013-04-07 08:14:00,44.1,33.1,30.28,SW,221,2.0,6.0,65,0.00,,CLR,0.00,VWS V14.01,2013-04-07 12:14:00,
2013-04-07 08:19:00,44.4,32.2,30.28,SW,214,17.0,18.0,62,0.00,,CLR,0.00,VWS V14.01,2013-04-07 12:19:00,
2013-04-07 08:25:00,44.7,32.1,30.28,SW,215,2.0,6.0,61,0.00,,CLR,0.00,VWS V14.01,2013-04-07 12:25:00,
2013-04-07 08:30:00,45.1,31.6,30.28,SW,217,5.0,8.0,59,0.00,,CLR,0.00,VWS V14.01,2013-04-07 12:30:00,
2013-04-07 08:35:00,45.3,31.4,30.28,WSW,237,8.0,14.0,58,0.00,,CLR,0.00,VWS V14.01,2013-04-07 12:35:00,
2013-04-07 08:40:00,45.5,31.2,30.28,SW,227,2.0,14.0,57,0.00,,CLR,0.00,VWS V14.01,2013-04-07 12:40:00,
2013-04-07 08:45:00,45.8,31.5,30.28,SW,231,2.0,2.0,57,0.00,,CLR,0.00,VWS V14.01,2013-04-07 12:45:00,
2013-04-07 08:50:00,46.1,30.4,30.28,SW,221,17.0,18.0,54,0.00,,CLR,0.00,VWS V14.01,2013-04-07 12:50:00,
2013-04-07 08:55:00,46.1,30.4,30.27,SW,226,20.0,20.0,54,0.00,,CLR,0.00,VWS V14.01,2013-04-07 12:55:00,
2013-04-07 09:00:00,46.1,30.4,30.27,SW,219,2.0,18.0,54,0.00,,OVC110,0.00,VWS V14.01,2013-04-07 13:00:00,
2013-04-07 09:05:00,46.4,30.7,30.26,SW,227,5.0,10.0,54,0.00,,OVC110,0.00,VWS V14.01,2013-04-07 13:05:00,
2013-04-07 09:10:00,46.7,31.0,30.26,SW,229,2.0,10.0,54,0.00,,OVC110,0.00,VWS V14.01,2013-04-07 13:10:00,
2013-04-07 09:15:00,47.1,31.3,30.26,SW,222,2.0,14.0,54,0.00,,OVC110,0.00,VWS V14.01,2013-04-07 13:15:00,
2013-04-07 09:20:00,47.5,31.2,30.26,SW,219,2.0,20.0,53,0.00,,OVC110,0.00,VWS V14.01,2013-04-07 13:20:00,
2013-04-07 09:25:00,47.9,32.1,30.26,SW,228,20.0,20.0,54,0.00,,OVC110,0.00,VWS V14.01,2013-04-07 13:25:00,
2013-04-07 09:31:00,48.3,31.5,30.26,SSW,204,11.0,11.0,52,0.00,,OVC110,0.00,VWS V14.01,2013-04-07 13:31:00,
2013-04-07 09:36:00,48.7,31.4,30.26,East,88,8.0,16.0,51,0.00,,OVC110,0.00,VWS V14.01,2013-04-07 13:36:00,
2013-04-07 09:41:00,48.6,31.8,30.26,SSW,203,2.0,8.0,52,0.00,,OVC110,0.00,VWS V14.01,2013-04-07 13:41:00,
2013-04-07 09:46:00,48.3,32.0,30.26,SSW,209,2.0,18.0,53,0.00,,OVC110,0.00,VWS V14.01,2013-04-07 13:46:00,
2013-04-07 09:51:00,48.3,32.0,30.26,SSW,212,8.0,10.0,53,0.00,,OVC110,0.00,VWS V14.01,2013-04-07 13:51:00,
2013-04-07 09:57:00,48.2,32.3,30.26,NNW,329,2.0,18.0,54,0.00,,BKN100,0.00,VWS V14.01,2013-04-07 13:57:00,
2013-04-07 10:02:00,48.3,32.4,30.26,West,272,8.0,10.0,54,0.00,,BKN100,0.00,VWS V14.01,2013-04-07 14:02:00,
2013-04-07 10:07:00,48.1,32.7,30.26,SSW,198,2.0,14.0,55,0.00,,BKN100,0.00,VWS V14.01,2013-04-07 14:07:00,
2013-04-07 10:12:00,48.2,33.3,30.26,East,98,8.0,8.0,56,0.00,,BKN100,0.00,VWS V14.01,2013-04-07 14:12:00,
2013-04-07 10:17:00,49.1,33.2,30.25,WSW,238,2.0,14.0,54,0.00,,BKN100,0.00,VWS V14.01,2013-04-07 14:17:00,
2013-04-07 10:22:00,50.2,34.2,30.25,WSW,250,5.0,18.0,54,0.00,,BKN100,0.00,VWS V14.01,2013-04-07 14:22:00,
2013-04-07 10:27:00,51.1,34.6,30.25,SW,222,2.0,18.0,53,0.00,,BKN100,0.00,VWS V14.01,2013-04-07 14:27:00,
2013-04-07 10:32:00,51.6,35.0,30.25,SW,232,8.0,8.0,53,0.00,,BKN100,0.00,VWS V14.01,2013-04-07 14:32:00,
2013-04-07 10:37:00,52.0,34.5,30.24,SE,132,2.0,8.0,51,0.00,,BKN100,0.00,VWS V14.01,2013-04-07 14:37:00,
2013-04-07 10:43:00,51.8,34.3,30.25,NE,46,11.0,28.0,51,0.00,,BKN100,0.00,VWS V14.01,2013-04-07 14:43:00,
2013-04-07 10:48:00,52.0,34.5,30.25,SW,232,11.0,28.0,51,0.00,,BKN100,0.00,VWS V14.01,2013-04-07 14:48:00,
2013-04-07 10:53:00,52.4,34.8,30.24,SW,227,2.0,20.0,51,0.00,,BKN100,0.00,VWS V14.01,2013-04-07 14:53:00,
2013-04-07 10:58:00,52.9,35.3,30.24,WSW,254,2.0,20.0,51,0.00,,CLR,0.00,VWS V14.01,2013-04-07 14:58:00,
2013-04-07 11:03:00,53.3,34.7,30.24,West,259,14.0,14.0,49,0.00,,CLR,0.00,VWS V14.01,2013-04-07 15:03:00,
2013-04-07 11:08:00,53.5,34.8,30.24,South,184,8.0,26.0,49,0.00,,CLR,0.00,VWS V14.01,2013-04-07 15:08:00,
2013-04-07 11:13:00,53.7,35.0,30.24,East,101,2.0,6.0,49,0.00,,CLR,0.00,VWS V14.01,2013-04-07 15:13:00,
2013-04-07 11:18:00,53.3,34.7,30.23,South,180,2.0,24.0,49,0.00,,CLR,0.00,VWS V14.01,2013-04-07 15:18:00,
2013-04-07 11:23:00,53.5,34.3,30.23,SW,215,8.0,20.0,48,0.00,,CLR,0.00,VWS V14.01,2013-04-07 15:23:00,
2013-04-07 11:28:00,53.4,34.7,30.23,WSW,247,14.0,20.0,49,0.00,,CLR,0.00,VWS V14.01,2013-04-07 15:28:00,
2013-04-07 11:33:00,53.9,35.7,30.22,WSW,238,2.0,12.0,50,0.00,,CLR,0.00,VWS V14.01,2013-04-07 15:33:00,
2013-04-07 11:38:00,54.2,35.0,30.22,SSW,213,2.0,24.0,48,0.00,,CLR,0.00,VWS V14.01,2013-04-07 15:38:00,
2013-04-07 11:44:00,55.0,35.2,30.22,South,177,2.0,16.0,47,0.00,,CLR,0.00,VWS V14.01,2013-04-07 15:44:00,
2013-04-07 11:49:00,55.6,36.2,30.21,East,94,20.0,20.0,48,0.00,,CLR,0.00,VWS V14.01,2013-04-07 15:49:00,
2013-04-07 11:54:00,55.9,36.5,30.21,SW,231,8.0,10.0,48,0.00,,CLR,0.00,VWS V14.01,2013-04-07 15:54:00,
2013-04-07 12:00:00,56.2,35.7,30.20,SW,221,2.0,16.0,46,0.00,,CLR,0.00,VWS V14.01,2013-04-07 16:00:00,
2013-04-07 12:05:00,56.3,35.8,30.20,SW,221,8.0,20.0,46,0.00,,CLR,0.00,VWS V14.01,2013-04-07 16:05:00,
2013-04-07 12:10:00,56.1,34.5,30.19,SW,226,14.0,22.0,44,0.00,,CLR,0.00,VWS V14.01,2013-04-07 16:10:00,
2013-04-07 12:15:00,56.5,35.4,30.19,WSW,239,2.0,16.0,45,0.00,,CLR,0.00,VWS V14.01,2013-04-07 16:15:00,
2013-04-07 12:20:00,57.3,37.3,30.18,NE,54,5.0,16.0,47,0.00,,CLR,0.00,VWS V14.01,2013-04-07 16:20:00,
2013-04-07 12:25:00,57.5,36.3,30.18,SW,215,2.0,14.0,45,0.00,,CLR,0.00,VWS V14.01,2013-04-07 16:25:00,
2013-04-07 12:30:00,58.1,37.5,30.17,SW,217,2.0,20.0,46,0.00,,CLR,0.00,VWS V14.01,2013-04-07 16:30:00,
2013-04-07 12:35:00,58.0,37.9,30.17,ESE,117,23.0,24.0,47,0.00,,CLR,0.00,VWS V14.01,2013-04-07 16:35:00,
2013-04-07 12:40:00,57.2,37.7,30.16,ENE,67,17.0,24.0,48,0.00,,CLR,0.00,VWS V14.01,2013-04-07 16:40:00,
2013-04-07 12:45:00,56.8,38.4,30.16,East,84,2.0,18.0,50,0.00,,CLR,0.00,VWS V14.01,2013-04-07 16:45:00,
2013-04-07 12:50:00,56.6,39.7,30.16,East,95,17.0,18.0,53,0.00,,CLR,0.00,VWS V14.01,2013-04-07 16:50:00,
2013-04-07 12:55:00,56.1,39.2,30.15,East,99,2.0,22.0,53,0.00,,CLR,0.00,VWS V14.01,2013-04-07 16:55:00,
2013-04-07 13:00:00,56.6,40.2,30.15,SW,227,2.0,22.0,54,0.00,,CLR,0.00,VWS V14.01,2013-04-07 17:00:00,
2013-04-07 13:05:00,56.6,40.2,30.15,East,82,11.0,26.0,54,0.00,,CLR,0.00,VWS V14.01,2013-04-07 17:05:00,
2013-04-07 13:11:00,56.2,40.3,30.15,East,97,17.0,17.0,55,0.00,,CLR,0.00,VWS V14.01,2013-04-07 17:11:00,
2013-04-07 13:16:00,56.8,40.8,30.15,East,88,2.0,14.0,55,0.00,,CLR,0.00,VWS V14.01,2013-04-07 17:16:00,
2013-04-07 13:21:00,57.3,40.3,30.14,ESE,104,8.0,12.0,53,0.00,,CLR,0.00,VWS V14.01,2013-04-07 17:21:00,
2013-04-07 13:26:00,57.0,39.6,30.14,SW,216,29.0,29.0,52,0.00,,CLR,0.00,VWS V14.01,2013-04-07 17:26:00,
2013-04-07 13:32:00,57.8,40.3,30.14,East,84,5.0,5.0,52,0.00,,CLR,0.00,VWS V14.01,2013-04-07 17:32:00,
2013-04-07 13:37:00,57.8,40.3,30.13,North,349,5.0,16.0,52,0.00,,CLR,0.00,VWS V14.01,2013-04-07 17:37:00,
2013-04-07 13:42:00,58.0,41.0,30.13,SSE,162,5.0,5.0,53,0.00,,CLR,0.00,VWS V14.01,2013-04-07 17:42:00,
2013-04-07 13:47:00,57.3,40.8,30.13,ENE,68,17.0,17.0,54,0.00,,CLR,0.00,VWS V14.01,2013-04-07 17:47:00,
2013-04-07 13:52:00,57.4,40.9,30.13,East,93,2.0,0.0,54,0.00,,CLR,0.00,VWS V14.01,2013-04-07 17:52:00,
2013-04-07 13:57:00,57.8,40.8,30.13,SW,218,5.0,22.0,53,0.00,,CLR,0.00,VWS V14.01,2013-04-07 17:57:00,
2013-04-07 14:02:00,57.5,41.0,30.12,SW,235,2.0,6.0,54,0.00,,CLR,0.00,VWS V14.01,2013-04-07 18:02:00,
2013-04-07 14:07:00,57.3,41.8,30.12,East,89,2.0,12.0,56,0.00,,CLR,0.00,VWS V14.01,2013-04-07 18:07:00,
2013-04-07 14:12:00,56.5,41.5,30.12,East,88,8.0,20.0,57,0.00,,CLR,0.00,VWS V14.01,2013-04-07 18:12:00,
2013-04-07 14:17:00,56.2,41.6,30.11,East,83,5.0,20.0,58,0.00,,CLR,0.00,VWS V14.01,2013-04-07 18:17:00,
2013-04-07 14:23:00,56.3,41.7,30.11,East,84,5.0,12.0,58,0.00,,CLR,0.00,VWS V14.01,2013-04-07 18:23:00,
2013-04-07 14:28:00,56.6,42.5,30.11,East,82,2.0,18.0,59,0.00,,CLR,0.00,VWS V14.01,2013-04-07 18:28:00,
2013-04-07 14:33:00,56.9,41.8,30.10,East,97,26.0,26.0,57,0.00,,CLR,0.00,VWS V14.01,2013-04-07 18:33:00,
2013-04-07 14:38:00,56.2,42.1,30.10,NNW,329,2.0,24.0,59,0.00,,CLR,0.00,VWS V14.01,2013-04-07 18:38:00,
2013-04-07 14:43:00,56.4,42.3,30.10,SW,235,2.0,8.0,59,0.00,,CLR,0.00,VWS V14.01,2013-04-07 18:43:00,
2013-04-07 14:48:00,56.3,42.2,30.10,SSW,203,2.0,24.0,59,0.00,,CLR,0.00,VWS V14.01,2013-04-07 18:48:00,
2013-04-07 14:53:00,56.5,42.8,30.09,East,88,11.0,11.0,60,0.00,,CLR,0.00,VWS V14.01,2013-04-07 18:53:00,
2013-04-07 14:58:00,56.3,42.6,30.09,ENE,76,2.0,14.0,60,0.00,,CLR,0.00,VWS V14.01,2013-04-07 18:58:00,
2013-04-07 15:03:00,56.5,42.8,30.08,WSW,250,2.0,8.0,60,0.00,,CLR,0.00,VWS V14.01,2013-04-07 19:03:00,
2013-04-07 15:08:00,56.9,43.2,30.08,SW,215,14.0,14.0,60,0.00,,CLR,0.00,VWS V14.01,2013-04-07 19:08:00,
2013-04-07 15:13:00,57.0,43.3,30.08,SW,234,2.0,12.0,60,0.00,,CLR,0.00,VWS V14.01,2013-04-07 19:13:00,
2013-04-07 15:18:00,56.9,43.6,30.08,ENE,63,2.0,16.0,61,0.00,,CLR,0.00,VWS V14.01,2013-04-07 19:18:00,
2013-04-07 15:23:00,57.1,43.4,30.07,SE,144,5.0,14.0,60,0.00,,CLR,0.00,VWS V14.01,2013-04-07 19:23:00,
2013-04-07 15:28:00,58.0,44.2,30.07,SW,234,14.0,20.0,60,0.00,,CLR,0.00,VWS V14.01,2013-04-07 19:28:00,
2013-04-07 15:33:00,59.1,44.8,30.06,East,83,2.0,10.0,59,0.00,,CLR,0.00,VWS V14.01,2013-04-07 19:33:00,
2013-04-07 15:38:00,59.1,44.8,30.06,SSW,212,2.0,16.0,59,0.00,,CLR,0.00,VWS V14.01,2013-04-07 19:38:00,
2013-04-07 15:43:00,59.4,44.6,30.06,SW,218,8.0,18.0,58,0.00,,CLR,0.00,VWS V14.01,2013-04-07 19:43:00,
2013-04-07 15:48:00,59.7,44.5,30.05,SSW,194,2.0,18.0,57,0.00,,CLR,0.00,VWS V14.01,2013-04-07 19:48:00,
2013-04-07 15:54:00,58.8,43.6,30.05,NW,319,2.0,28.0,57,0.00,,CLR,0.00,VWS V14.01,2013-04-07 19:54:00,
2013-04-07 15:59:00,58.5,44.2,30.04,East,88,2.0,28.0,59,0.00,,CLR,0.00,VWS V14.01,2013-04-07 19:59:00,
2013-04-07 16:04:00,58.3,44.0,30.04,SSE,159,2.0,22.0,59,0.00,,CLR,0.00,VWS V14.01,2013-04-07 20:04:00,
2013-04-07 16:09:00,58.4,44.6,30.03,ESE,105,2.0,22.0,60,0.00,,CLR,0.00,VWS V14.01,2013-04-07 20:09:00,
2013-04-07 16:14:00,58.3,44.0,30.03,ENE,63,8.0,8.0,59,0.00,,CLR,0.00,VWS V14.01,2013-04-07 20:14:00,
2013-04-07 16:20:00,57.5,44.2,30.01,SE,132,2.0,12.0,61,0.00,,CLR,0.00,VWS V14.01,2013-04-07 20:20:00,
2013-04-07 16:25:00,57.6,44.3,30.00,East,94,14.0,26.0,61,0.00,,CLR,0.00,VWS V14.01,2013-04-07 20:25:00,
2013-04-07 16:30:00,57.1,44.2,30.01,ESE,113,14.0,26.0,62,0.00,,CLR,0.00,VWS V14.01,2013-04-07 20:30:00,
2013-04-07 16:35:00,56.7,44.3,30.02,ENE,63,2.0,14.0,63,0.00,,CLR,0.00,VWS V14.01,2013-04-07 20:35:00,
2013-04-07 16:40:00,57.0,45.0,30.03,ENE,72,5.0,22.0,64,0.00,,CLR,0.00,VWS V14.01,2013-04-07 20:40:00,
2013-04-07 16:45:00,56.8,44.8,30.03,East,92,17.0,22.0,64,0.00,,CLR,0.00,VWS V14.01,2013-04-07 20:45:00,
2013-04-07 16:50:00,56.8,44.8,30.03,ENE,71,2.0,22.0,64,0.00,,CLR,0.00,VWS V14.01,2013-04-07 20:50:00,
2013-04-07 16:55:00,56.8,44.8,30.03,ENE,77,8.0,8.0,64,0.00,,CLR,0.00,VWS V14.01,2013-04-07 20:55:00,
2013-04-07 17:00:00,56.9,44.9,30.03,ENE,70,8.0,12.0,64,0.00,,CLR,0.00,VWS V14.01,2013-04-07 21:00:00,
2013-04-07 17:05:00,56.9,45.3,30.02,WNW,298,2.0,22.0,65,0.00,,CLR,0.00,VWS V14.01,2013-04-07 21:05:00,
2013-04-07 17:10:00,57.1,45.0,30.01,NE,39,17.0,17.0,64,0.00,,CLR,0.00,VWS V14.01,2013-04-07 21:10:00,
2013-04-07 17:16:00,57.1,45.0,30.01,East,91,2.0,14.0,64,0.00,,CLR,0.00,VWS V14.01,2013-04-07 21:16:00,
2013-04-07 17:21:00,57.4,45.8,30.01,East,82,2.0,6.0,65,0.00,,CLR,0.00,VWS V14.01,2013-04-07 21:21:00,
2013-04-07 17:26:00,57.5,45.8,30.00,ESE,111,26.0,26.0,65,0.00,,CLR,0.00,VWS V14.01,2013-04-07 21:26:00,
2013-04-07 17:31:00,57.0,45.4,30.00,ESE,107,5.0,8.0,65,0.00,,CLR,0.00,VWS V14.01,2013-04-07 21:31:00,
2013-04-07 17:36:00,56.8,45.6,29.98,ESE,117,2.0,22.0,66,0.00,,CLR,0.00,VWS V14.01,2013-04-07 21:36:00,
2013-04-07 17:42:00,56.4,45.6,29.99,East,88,8.0,10.0,67,0.00,,CLR,0.00,VWS V14.01,2013-04-07 21:42:00,
2013-04-07 17:47:00,55.8,45.4,29.99,ESE,108,5.0,12.0,68,0.00,,CLR,0.00,VWS V14.01,2013-04-07 21:47:00,
2013-04-07 17:52:00,55.5,45.5,30.00,East,79,2.0,2.0,69,0.00,,CLR,0.00,VWS V14.01,2013-04-07 21:52:00,
2013-04-07 17:57:00,55.3,45.7,30.01,ENE,65,2.0,10.0,70,0.00,,CLR,0.00,VWS V14.01,2013-04-07 21:57:00,
2013-04-07 18:02:00,55.4,45.8,30.01,ESE,120,2.0,2.0,70,0.00,,CLR,0.00,VWS V14.01,2013-04-07 22:02:00,
2013-04-07 18:07:00,55.4,45.8,30.01,ESE,111,5.0,5.0,70,0.00,,CLR,0.00,VWS V14.01,2013-04-07 22:07:00,
2013-04-07 18:12:00,55.4,45.8,30.00,East,83,2.0,12.0,70,0.00,,CLR,0.00,VWS V14.01,2013-04-07 22:12:00,
2013-04-07 18:17:00,55.4,45.8,30.01,South,183,2.0,12.0,70,0.00,,CLR,0.00,VWS V14.01,2013-04-07 22:17:00,
2013-04-07 18:22:00,55.4,45.8,30.00,ENE,78,2.0,10.0,70,0.00,,CLR,0.00,VWS V14.01,2013-04-07 22:22:00,
2013-04-07 18:28:00,55.4,45.8,30.01,ENE,66,2.0,10.0,70,0.00,,CLR,0.00,VWS V14.01,2013-04-07 22:28:00,
2013-04-07 18:33:00,55.5,46.3,30.01,ENE,66,2.0,6.0,71,0.00,,CLR,0.00,VWS V14.01,2013-04-07 22:33:00,
2013-04-07 18:38:00,55.4,46.2,30.01,SSW,195,2.0,6.0,71,0.00,,CLR,0.00,VWS V14.01,2013-04-07 22:38:00,
2013-04-07 18:43:00,55.4,46.2,30.00,SE,141,2.0,4.0,71,0.00,,CLR,0.00,VWS V14.01,2013-04-07 22:43:00,
2013-04-07 18:48:00,55.5,47.4,30.01,ESE,109,2.0,10.0,74,0.00,,CLR,0.00,VWS V14.01,2013-04-07 22:48:00,
2013-04-07 18:53:00,55.4,47.3,30.01,ESE,109,2.0,2.0,74,0.00,,CLR,0.00,VWS V14.01,2013-04-07 22:53:00,
2013-04-07 18:58:00,55.2,47.4,30.01,ESE,109,2.0,2.0,75,0.00,,-RA,0.00,VWS V14.01,2013-04-07 22:58:00,
2013-04-07 19:04:00,55.0,46.9,30.01,ESE,105,5.0,8.0,74,0.00,,-RA,0.00,VWS V14.01,2013-04-07 23:04:00,
2013-04-07 19:09:00,54.9,46.8,30.02,ESE,104,2.0,8.0,74,0.00,,-RA,0.00,VWS V14.01,2013-04-07 23:09:00,
2013-04-07 19:14:00,54.7,46.9,30.01,East,92,2.0,4.0,75,0.00,,-RA,0.00,VWS V14.01,2013-04-07 23:14:00,
2013-04-07 19:19:00,54.4,46.7,30.01,East,93,2.0,4.0,75,0.00,,-RA,0.00,VWS V14.01,2013-04-07 23:19:00,
2013-04-07 19:24:00,54.3,46.6,30.01,East,93,2.0,2.0,75,0.00,,-RA,0.00,VWS V14.01,2013-04-07 23:24:00,
2013-04-07 19:29:00,54.1,46.4,30.02,East,93,2.0,2.0,75,0.00,,-RA,0.00,VWS V14.01,2013-04-07 23:29:00,
2013-04-07 19:34:00,54.1,46.4,30.02,East,93,2.0,2.0,75,0.00,,-RA,0.00,VWS V14.01,2013-04-07 23:34:00,
2013-04-07 19:40:00,54.1,46.4,30.02,East,93,2.0,2.0,75,0.00,,-RA,0.00,VWS V14.01,2013-04-07 23:40:00,
2013-04-07 19:45:00,54.1,46.4,30.02,East,93,2.0,2.0,75,0.00,,-RA,0.00,VWS V14.01,2013-04-07 23:45:00,
2013-04-07 19:50:00,54.2,46.5,30.02,East,92,2.0,2.0,75,0.00,,-RA,0.00,VWS V14.01,2013-04-07 23:50:00,
2013-04-07 19:55:00,54.2,46.5,30.03,East,93,2.0,0.0,75,0.00,,-RA,0.00,VWS V14.01,2013-04-07 23:55:00,
2013-04-07 20:00:00,54.2,46.5,30.02,East,93,2.0,0.0,75,0.00,,CLR,0.00,VWS V14.01,2013-04-08 00:00:00,
2013-04-07 20:05:00,54.2,46.5,30.02,East,93,2.0,0.0,75,0.00,,CLR,0.00,VWS V14.01,2013-04-08 00:05:00,
2013-04-07 20:10:00,54.1,46.4,30.02,East,93,2.0,0.0,75,0.00,,CLR,0.00,VWS V14.01,2013-04-08 00:10:00,
2013-04-07 20:15:00,54.0,46.6,30.02,East,93,2.0,0.0,76,0.00,,CLR,0.00,VWS V14.01,2013-04-08 00:15:00,
2013-04-07 20:20:00,54.0,46.6,30.02,East,93,2.0,0.0,76,0.00,,CLR,0.00,VWS V14.01,2013-04-08 00:20:00,
2013-04-07 20:25:00,54.0,46.6,30.02,East,92,2.0,4.0,76,0.00,,CLR,0.00,VWS V14.01,2013-04-08 00:25:00,
2013-04-07 20:30:00,54.0,46.6,30.02,East,93,2.0,4.0,76,0.00,,CLR,0.00,VWS V14.01,2013-04-08 00:30:00,
2013-04-07 20:35:00,54.0,46.6,30.02,SW,224,2.0,6.0,76,0.00,,CLR,0.00,VWS V14.01,2013-04-08 00:35:00,
2013-04-07 20:41:00,54.2,46.5,30.02,SW,223,2.0,0.0,75,0.00,,CLR,0.00,VWS V14.01,2013-04-08 00:41:00,
2013-04-07 20:46:00,54.7,46.6,30.02,SW,225,5.0,10.0,74,0.00,,CLR,0.00,VWS V14.01,2013-04-08 00:46:00,
2013-04-07 20:51:00,55.2,46.7,30.02,SW,218,5.0,10.0,73,0.00,,CLR,0.00,VWS V14.01,2013-04-08 00:51:00,
2013-04-07 20:56:00,55.4,46.5,30.02,SW,225,2.0,10.0,72,0.00,,CLR,0.00,VWS V14.01,2013-04-08 00:56:00,
2013-04-07 21:01:00,55.4,46.5,30.02,SW,218,2.0,2.0,72,0.00,,CLR,0.00,VWS V14.01,2013-04-08 01:01:00,
2013-04-07 21:07:00,55.4,46.5,30.02,SW,225,2.0,8.0,72,0.00,,CLR,0.00,VWS V14.01,2013-04-08 01:07:00,
2013-04-07 21:12:00,55.4,46.5,30.03,SW,226,2.0,4.0,72,0.00,,CLR,0.00,VWS V14.01,2013-04-08 01:12:00,
2013-04-07 21:17:00,55.4,46.5,30.02,SW,219,2.0,12.0,72,0.00,,CLR,0.00,VWS V14.01,2013-04-08 01:17:00,
2013-04-07 21:22:00,55.4,46.5,30.02,SW,219,2.0,8.0,72,0.00,,CLR,0.00,VWS V14.01,2013-04-08 01:22:00,
2013-04-07 21:27:00,55.5,46.6,30.02,SW,218,20.0,20.0,72,0.00,,CLR,0.00,VWS V14.01,2013-04-08 01:27:00,
2013-04-07 21:32:00,55.5,46.6,30.02,SW,221,2.0,2.0,72,0.00,,CLR,0.00,VWS V14.01,2013-04-08 01:32:00,
2013-04-07 21:37:00,55.4,46.9,30.02,SW,222,2.0,16.0,73,0.00,,CLR,0.00,VWS V14.01,2013-04-08 01:37:00,
2013-04-07 21:42:00,55.3,46.8,30.02,SW,236,5.0,6.0,73,0.00,,CLR,0.00,VWS V14.01,2013-04-08 01:42:00,
2013-04-07 21:48:00,55.2,46.7,30.03,SW,223,2.0,6.0,73,0.00,,CLR,0.00,VWS V14.01,2013-04-08 01:48:00,
2013-04-07 21:53:00,55.1,46.6,30.02,SW,233,2.0,10.0,73,0.00,,CLR,0.00,VWS V14.01,2013-04-08 01:53:00,
2013-04-07 21:58:00,55.1,46.6,30.03,SSW,202,2.0,12.0,73,0.00,,CLR,0.00,VWS V14.01,2013-04-08 01:58:00,
2013-04-07 22:03:00,55.0,46.5,30.03,SSW,205,2.0,4.0,73,0.00,,CLR,0.00,VWS V14.01,2013-04-08 02:03:00,
2013-04-07 22:08:00,54.8,46.7,30.03,SSW,205,2.0,4.0,74,0.00,,CLR,0.00,VWS V14.01,2013-04-08 02:08:00,
2013-04-07 22:13:00,54.6,46.5,30.03,WSW,240,2.0,2.0,74,0.00,,CLR,0.00,VWS V14.01,2013-04-08 02:13:00,
2013-04-07 22:18:00,54.5,46.8,30.02,WSW,240,2.0,2.0,75,0.00,,CLR,0.00,VWS V14.01,2013-04-08 02:18:00,
2013-04-07 22:23:00,54.3,46.6,30.02,WSW,240,2.0,6.0,75,0.00,,CLR,0.00,VWS V14.01,2013-04-08 02:23:00,
2013-04-07 22:28:00,54.2,46.5,30.02,SW,227,2.0,8.0,75,0.00,,CLR,0.00,VWS V14.01,2013-04-08 02:28:00,
2013-04-07 22:33:00,54.3,46.9,30.02,SW,220,2.0,12.0,76,0.00,,CLR,0.00,VWS V14.01,2013-04-08 02:33:00,
2013-04-07 22:39:00,54.3,46.6,30.02,SW,216,5.0,12.0,75,0.00,,CLR,0.00,VWS V14.01,2013-04-08 02:39:00,
2013-04-07 22:44:00,54.4,46.7,30.02,SW,222,5.0,8.0,75,0.00,,CLR,0.00,VWS V14.01,2013-04-08 02:44:00,
2013-04-07 22:49:00,54.4,46.7,30.02,SW,229,2.0,8.0,75,0.00,,CLR,0.00,VWS V14.01,2013-04-08 02:49:00,
2013-04-07 22:55:00,54.3,46.6,30.02,SW,232,2.0,8.0,75,0.00,,CLR,0.00,VWS V14.01,2013-04-08 02:55:00,
2013-04-07 23:00:00,54.3,46.9,30.01,SW,232,2.0,8.0,76,0.00,,CLR,0.00,VWS V14.01,2013-04-08 03:00:00,
2013-04-07 23:05:00,54.3,46.9,30.01,SW,224,2.0,12.0,76,0.00,,CLR,0.00,VWS V14.01,2013-04-08 03:05:00,
2013-04-07 23:11:00,54.3,46.6,30.01,SW,225,11.0,12.0,75,0.00,,CLR,0.00,VWS V14.01,2013-04-08 03:11:00,
2013-04-07 23:16:00,54.3,46.6,30.01,SW,221,2.0,12.0,75,0.00,,CLR,0.00,VWS V14.01,2013-04-08 03:16:00,
2013-04-07 23:21:00,54.3,46.6,30.01,SW,215,11.0,11.0,75,0.00,,CLR,0.00,VWS V14.01,2013-04-08 03:21:00,
2013-04-07 23:27:00,54.4,46.7,30.00,SW,214,2.0,10.0,75,0.00,,CLR,0.00,VWS V14.01,2013-04-08 03:27:00,
2013-04-07 23:31:00,54.4,46.7,30.00,SW,216,2.0,8.0,75,0.00,,CLR,0.00,VWS V14.01,2013-04-08 03:31:00,
2013-04-07 23:37:00,54.5,46.4,30.00,SSW,209,11.0,18.0,74,0.00,,CLR,0.00,VWS V14.01,2013-04-08 03:37:00,
2013-04-07 23:42:00,54.4,46.3,30.00,WSW,248,2.0,2.0,74,0.00,,CLR,0.00,VWS V14.01,2013-04-08 03:42:00,
2013-04-07 23:47:00,54.3,46.6,30.00,SSW,206,2.0,10.0,75,0.00,,CLR,0.00,VWS V14.01,2013-04-08 03:47:00,
2013-04-07 23:52:00,54.2,46.5,30.00,SSW,212,5.0,6.0,75,0.00,,CLR,0.00,VWS V14.01,2013-04-08 03:52:00,
2013-04-07 23:57:00,54.1,46.4,30.00,SW,215,2.0,10.0,75,0.00,,CLR,0.00,VWS V14.01,2013-04-08 03:57:00,